sat.trackr.live / text

‹ back to catalog

NUSAT-41 (C PAYNE-G)

NORAD 56944 · 2023-084N

PAYLOAD ACTIVE UNKNOWN

§ Identity

Operator
Country
ARGN
Launch date
2023-06-12
Launch site
AFWTR
Launch vehicle
Mass (kg)
RCS (m²)

External: N2YO · Heavens-Above · Gunter

§ Orbital elements

Epoch: 2026-09-21T21:57:02.253888Z

Period
94.09 min
Inclination
97.5643°
Eccentricity
0.0006978
Mean motion
15.30439442 rev/d
Perigee alt
469.7 km
Apogee alt
479.3 km
Semi-major
6,852.6 km
B*
2.1339e-4
RAAN
43.2767°
Arg perigee
347.7415°
Mean anomaly
12.3655°
Rev number
18,257

§ Raw data

NUSAT-41 (C PAYNE-G)1 56944U 23084N   26264.91460942  .00006205  00000+0  21339-3 0  99932 56944  97.5643  43.2767 0006978 347.7415  12.3655 15.30439442182574

JSON: /api/v1/satellites/56944 · /tle

For live sub-satellite position, see the globe view (requires WebGL).

§ Visibility from observer

Set your observer location to see the next 7 days of passes ≥ 10°. The values pass through the URL so the page stays shareable.

No JS? Fill the form by hand. The geolocation button needs JavaScript.